FW8040 Weather Reports


Display with metric or nautical units.
time (UTC)temp
F
wind
direction
speed
MPH
gust
MPH
rain 1hr
in
rain 24hr
in
rain mn
in
humidity
%
barometer
mb
20260502233543 54 0 0.0 0.0 0.00 0.09 0.09 86 1011.3
20260502233048 54 0 0.0 0.0 0.00 0.09 0.09 86 1011.3
20260502232542 54 0 0.0 0.0 0.00 0.09 0.09 85 1011.3
20260502232042 54 0 0.0 0.0 0.00 0.09 0.09 85 1011.2
20260502231548 54 0 0.0 0.0 0.00 0.09 0.09 85 1011.1
20260502231042 54 0 0.0 0.0 0.00 0.09 0.09 84 1011.1
20260502230541 55 0 0.0 0.0 0.00 0.09 0.09 84 1010.9
20260502230052 55 0 0.0 0.0 0.00 0.09 0.09 84 1010.9
20260502225542 55 0 0.0 0.0 0.00 0.09 0.09 84 1011.0
20260502225042 55 0 0.0 0.0 0.00 0.09 0.09 84 1011.0
20260502224547 55 0 0.0 0.0 0.00 0.09 0.09 84 1011.0
20260502224042 55 0 0.0 0.0 0.00 0.09 0.09 84 1010.9
20260502223543 55 0 0.0 0.0 0.00 0.09 0.09 84 1010.8
20260502223047 55 0 0.0 0.0 0.00 0.09 0.09 84 1010.9
20260502222543 55 0 0.0 0.0 0.00 0.09 0.09 84 1011.0
20260502222043 55 0 0.0 0.0 0.00 0.09 0.09 83 1010.9
20260502221555 55 0 0.0 0.0 0.00 0.09 0.09 83 1011.0
20260502221043 55 0 0.0 0.0 0.00 0.09 0.09 82 1010.8
20260502220542 55 0 0.0 0.0 0.00 0.09 0.09 82 1010.8
20260502220051 55 0 0.0 0.0 0.00 0.09 0.09 82 1010.7
20260502215543 55 0 0.0 0.0 0.00 0.09 0.09 82 1010.7
20260502215043 55 0 0.0 0.0 0.00 0.09 0.09 82 1010.7
20260502214556 55 0 0.0 0.0 0.00 0.09 0.09 82 1010.7
20260502214043 55 0 0.0 0.0 0.00 0.09 0.09 82 1010.6
20260502213542 55 0 0.0 0.0 0.00 0.09 0.09 81 1010.7
20260502213055 55 0 0.0 0.0 0.00 0.09 0.09 81 1010.7
20260502212543 55 0 0.0 0.0 0.00 0.09 0.09 82 1010.8
20260502212043 55 0 0.0 0.0 0.00 0.09 0.09 82 1010.7
20260502211549 55 0 0.0 0.0 0.00 0.09 0.09 82 1010.6
20260502211042 55 0 0.0 0.0 0.00 0.09 0.09 81 1010.6
20260502210543 55 0 0.0 0.0 0.00 0.09 0.09 82 1010.7
20260502210050 55 0 0.0 0.0 0.00 0.09 0.09 81 1010.8
20260502205540 55 0 0.0 0.0 0.00 0.09 0.09 81 1010.7
20260502205042 55 0 0.0 0.0 0.00 0.09 0.09 81 1010.8
20260502204553 55 0 0.0 1.0 0.00 0.09 0.09 81 1010.7
20260502204043 55 0 0.0 1.0 0.00 0.09 0.09 82 1010.8
20260502203543 55 0 0.0 1.0 0.00 0.09 0.09 82 1010.8
20260502203053 55 0 0.0 1.0 0.00 0.09 0.09 81 1010.9
20260502202542 55 148 0.0 0.0 0.00 0.09 0.09 81 1010.9
20260502202046 55 0 0.0 0.0 0.00 0.09 0.09 83 1010.8
20260502201550 55 0 0.0 0.0 0.00 0.09 0.09 84 1010.7
20260502201042 55 0 0.0 1.0 0.00 0.09 0.09 84 1010.6
20260502200542 55 0 0.0 1.0 0.00 0.09 0.09 82 1010.6
20260502200052 55 0 0.0 0.0 0.00 0.09 0.09 85 1010.6
20260502195542 55 0 0.0 2.0 0.00 0.09 0.09 83 1010.7
20260502195043 55 0 0.0 2.0 0.00 0.09 0.09 83 1010.8
20260502194600 55 0 0.0 1.0 0.00 0.09 0.09 84 1010.9
20260502194043 55 0 0.0 0.0 0.00 0.09 0.09 86 1010.9
20260502193543 54 0 0.0 0.0 0.00 0.09 0.09 85 1011.0
20260502193047 54 0 0.0 0.0 0.00 0.09 0.09 85 1011.1
20260502192542 54 0 0.0 1.0 0.00 0.09 0.09 86 1011.3
20260502192043 54 0 0.0 1.0 0.00 0.09 0.09 87 1011.3
20260502191550 54 0 0.0 1.0 0.00 0.09 0.09 88 1011.2
20260502191042 54 0 0.0 2.0 0.00 0.09 0.09 88 1011.2
20260502190543 53 0 0.0 2.0 0.00 0.09 0.09 88 1011.3
20260502190052 53 0 0.0 2.0 0.00 0.09 0.09 87 1011.4
20260502185543 53 113 0.0 0.0 0.00 0.09 0.09 87 1011.4
20260502185042 53 0 0.0 0.0 0.00 0.09 0.09 88 1011.4
20260502184556 53 0 0.0 2.0 0.00 0.09 0.09 87 1011.5
20260502184042 53 0 0.0 2.0 0.00 0.09 0.09 87 1011.6
20260502183542 53 0 0.0 1.0 0.00 0.09 0.09 89 1011.5
20260502183054 53 0 0.0 0.0 0.00 0.09 0.09 89 1011.5
20260502182606 53 0 0.0 0.0 0.00 0.09 0.09 90 1011.6
20260502182042 53 0 0.0 1.0 0.00 0.09 0.09 90 1011.8
20260502181552 52 0 0.0 1.0 0.00 0.09 0.09 90 1011.8
20260502181043 52 0 0.0 1.0 0.00 0.09 0.09 90 1012.1
20260502180543 52 0 0.0 1.0 0.00 0.09 0.09 90 1012.2
20260502164043 51 0 0.0 1.0 0.01 0.09 0.09 93 1012.7
20260502163542 51 0 0.0 0.0 0.01 0.09 0.09 93 1012.8
20260502163052 51 0 0.0 2.0 0.01 0.09 0.09 93 1012.8
20260502162542 51 0 0.0 2.0 0.00 0.08 0.08 93 1012.9
20260502162046 51 0 0.0 0.0 0.00 0.08 0.08 94 1013.1
20260502161549 51 0 0.0 0.0 0.00 0.08 0.08 93 1013.2
20260502161042 51 0 0.0 0.0 0.00 0.08 0.08 93 1013.3
20260502160542 51 0 0.0 0.0 0.00 0.08 0.08 93 1013.3
20260502152042 51 0 0.0 1.0 0.01 0.08 0.08 93 1012.8
20260502151602 51 0 0.0 2.0 0.02 0.08 0.08 93 1013.0
20260502151042 51 0 0.0 2.0 0.02 0.08 0.08 93 1012.9
20260502150543 51 334 0.0 1.0 0.02 0.08 0.08 94 1012.8
20260502130543 51 0 0.0 0.0 0.03 0.03 0.03 91 1012.1
20260502123546 51 0 0.0 0.0 0.00 0.00 0.00 90 1011.8
20260502123059 51 0 0.0 0.0 0.00 0.00 0.00 90 1011.6
20260502122543 51 0 0.0 0.0 0.00 0.00 0.00 89 1011.5
20260502122043 51 0 0.0 0.0 0.00 0.00 0.00 89 1011.4
20260502121556 51 0 0.0 0.0 0.00 0.00 0.00 89 1011.4
20260502121043 51 0 0.0 0.0 0.00 0.00 0.00 89 1011.4
20260502120544 51 0 0.0 0.0 0.00 0.00 0.00 89 1011.5
20260502115543 51 0 0.0 0.0 0.00 0.00 0.00 88 1011.6
20260502115043 52 0 0.0 0.0 0.00 0.00 0.00 88 1011.6
20260502114555 52 0 0.0 0.0 0.00 0.00 0.00 87 1011.7
20260502114043 52 0 0.0 0.0 0.00 0.00 0.00 87 1011.7
20260502113544 52 0 0.0 0.0 0.00 0.00 0.00 86 1011.7
20260502113053 52 0 0.0 0.0 0.00 0.00 0.00 86 1011.7
20260502112542 52 0 0.0 0.0 0.00 0.00 0.00 85 1011.7
20260502112042 53 0 0.0 0.0 0.00 0.00 0.00 85 1011.9
20260502111550 53 0 0.0 0.0 0.00 0.00 0.00 84 1011.9
20260502111046 53 0 0.0 0.0 0.00 0.00 0.00 84 1011.9
20260502110544 53 0 0.0 0.0 0.00 0.00 0.00 84 1011.9
20260502110054 53 0 0.0 0.0 0.00 0.00 0.00 83 1011.9
20260502105543 54 0 0.0 0.0 0.00 0.00 0.00 82 1011.9
20260502105043 54 0 0.0 0.0 0.00 0.00 0.00 82 1011.9
20260502104547 54 0 0.0 0.0 0.00 0.00 0.00 81 1011.9
20260502104041 54 0 0.0 0.0 0.00 0.00 0.00 81 1011.9
20260502103546 54 0 0.0 0.0 0.00 0.00 0.00 81 1011.9
20260502103058 54 0 0.0 0.0 0.00 0.00 0.00 82 1012.0
20260502102544 54 0 0.0 1.0 0.00 0.00 0.00 83 1012.0
20260502102046 54 0 0.0 1.0 0.00 0.00 0.00 83 1011.9
20260502101558 53 0 0.0 0.0 0.00 0.00 0.00 83 1011.8
20260502101042 53 0 0.0 0.0 0.00 0.00 0.00 84 1011.9
20260502100542 53 0 0.0 0.0 0.00 0.00 0.00 86 1012.0
20260502100110 53 0 0.0 0.0 0.00 0.00 0.00 86 1012.0
20260502091047 53 0 0.0 0.0 0.00 0.00 0.00 87 1011.7
20260502090543 53 0 0.0 0.0 0.00 0.00 0.00 88 1011.8
20260502071043 53 0 0.0 0.0 0.00 0.00 0.00 88 1011.1
20260502070544 53 0 0.0 0.0 0.00 0.00 0.00 88 1011.1
20260502070053 53 0 0.0 0.0 0.00 0.00 0.00 87 1011.1
20260502065543 53 0 0.0 0.0 0.00 0.00 0.00 87 1011.1
20260502065043 53 0 0.0 0.0 0.00 0.00 0.00 87 1011.0
20260502064546 53 0 0.0 0.0 0.00 0.00 0.00 87 1011.1
20260502064043 53 0 0.0 0.0 0.00 0.00 0.00 87 1011.3
20260502063543 53 0 0.0 0.0 0.00 0.00 0.00 87 1011.3
20260502063054 53 0 0.0 0.0 0.00 0.00 0.00 87 1011.3
20260502062542 53 0 0.0 0.0 0.00 0.00 0.00 87 1011.4
20260502062044 53 0 0.0 0.0 0.00 0.00 0.00 87 1011.4
20260502061610 53 0 0.0 0.0 0.00 0.00 0.00 87 1011.4
20260502061042 53 0 0.0 0.0 0.00 0.00 0.00 87 1011.5
20260502060544 53 0 0.0 0.0 0.00 0.00 0.00 87 1011.4
20260502060048 53 0 0.0 0.0 0.00 0.00 0.00 87 1011.2
20260502055543 53 0 0.0 0.0 0.00 0.00 0.00 87 1011.3
20260502055044 53 0 0.0 0.0 0.00 0.00 0.00 86 1011.3
20260502054548 53 0 0.0 0.0 0.00 0.00 0.00 86 1011.4
20260502054043 53 0 0.0 0.0 0.00 0.00 0.00 86 1011.5
20260502053543 53 0 0.0 0.0 0.00 0.00 0.00 86 1011.5
20260502053102 53 0 0.0 0.0 0.00 0.00 0.00 86 1011.5
20260502052544 53 0 0.0 0.0 0.00 0.00 0.00 86 1011.5
20260502052045 53 0 0.0 0.0 0.00 0.00 0.00 86 1011.7
20260502051550 53 0 0.0 0.0 0.00 0.00 0.00 86 1011.8
20260502051044 53 0 0.0 0.0 0.00 0.00 0.00 86 1011.8
20260502050544 53 0 0.0 0.0 0.00 0.00 0.00 86 1011.8
20260502050047 53 0 0.0 0.0 0.00 0.00 0.00 85 1011.8
20260502045546 53 0 0.0 0.0 0.00 0.00 0.00 85 1011.8
20260502045043 53 0 0.0 0.0 0.00 0.00 0.00 85 1011.8
20260502044552 53 0 0.0 0.0 0.00 0.00 0.00 85 1011.9
20260502044043 53 0 0.0 0.0 0.00 0.00 0.00 85 1011.9
20260502043543 53 0 0.0 0.0 0.00 0.00 0.00 85 1011.9
20260502043058 53 0 0.0 0.0 0.00 0.00 0.00 85 1012.0
20260502042543 53 0 0.0 0.0 0.00 0.00 0.00 85 1012.0
20260502042044 53 0 0.0 0.0 0.00 0.00 0.00 85 1012.0
20260502041554 53 0 0.0 0.0 0.00 0.00 0.00 84 1012.0
20260502041045 53 0 0.0 0.0 0.00 0.00 0.00 84 1012.1
20260502040544 53 0 0.0 0.0 0.00 0.00 0.00 84 1012.2
20260502040049 53 0 0.0 0.0 0.00 0.00 0.00 84 1012.1
20260502035543 53 0 0.0 0.0 0.00 0.00 0.00 84 1012.2
20260502035043 53 0 0.0 0.0 0.00 0.00 0.00 84 1012.2
20260502034549 53 0 0.0 0.0 0.00 0.00 0.00 84 1012.1
20260502034043 53 0 0.0 0.0 0.00 0.00 0.00 84 1012.2
20260502033542 53 0 0.0 0.0 0.00 0.00 0.00 84 1012.2
20260502033048 53 0 0.0 0.0 0.00 0.00 0.00 84 1012.1
20260502032544 53 0 0.0 0.0 0.00 0.00 0.00 84 1012.1
20260502032043 53 0 0.0 0.0 0.00 0.00 0.00 84 1012.3
20260502031553 53 0 0.0 0.0 0.00 0.00 0.00 84 1012.2
20260502031044 53 0 0.0 0.0 0.00 0.00 0.00 84 1012.3
20260502030544 53 0 0.0 0.0 0.00 0.00 0.00 84 1012.4
20260502030107 53 0 0.0 0.0 0.00 0.00 0.00 84 1012.4
20260502025544 54 0 0.0 0.0 0.00 0.00 0.00 84 1012.5
20260502025044 54 0 0.0 0.0 0.00 0.00 0.00 84 1012.5
20260502024604 54 0 0.0 0.0 0.00 0.00 0.00 83 1012.4
20260502024043 54 0 0.0 0.0 0.00 0.00 0.00 84 1012.4
20260502023543 54 0 0.0 0.0 0.00 0.00 0.00 84 1012.5
20260502023050 54 0 0.0 0.0 0.00 0.00 0.00 84 1012.5
20260502022544 54 0 0.0 0.0 0.00 0.00 0.00 84 1012.7
20260502022042 54 0 0.0 0.0 0.00 0.00 0.00 83 1012.8
20260502021547 54 0 0.0 0.0 0.00 0.00 0.00 83 1012.7
20260502021042 54 0 0.0 0.0 0.00 0.00 0.00 83 1012.7
20260502020544 54 0 0.0 0.0 0.00 0.00 0.00 83 1012.6
20260502020048 54 0 0.0 0.0 0.00 0.00 0.00 83 1012.7
20260502015547 54 0 0.0 0.0 0.00 0.00 0.00 83 1012.5
20260502015046 54 0 0.0 0.0 0.00 0.00 0.00 83 1012.5
20260502014546 54 0 0.0 0.0 0.00 0.00 0.00 83 1012.5
20260502014043 54 0 0.0 0.0 0.00 0.00 0.00 83 1012.4
20260502013543 54 0 0.0 0.0 0.00 0.00 0.00 83 1012.3
20260502013048 54 0 0.0 0.0 0.00 0.00 0.00 83 1012.4
20260502012545 54 0 0.0 0.0 0.00 0.00 0.00 83 1012.5
20260502012043 54 0 0.0 0.0 0.00 0.00 0.00 83 1012.5
20260502011550 54 0 0.0 0.0 0.00 0.00 0.00 83 1012.7
20260502011043 54 0 0.0 0.0 0.00 0.00 0.00 83 1012.4
20260502010547 54 0 0.0 0.0 0.00 0.00 0.00 83 1012.2
20260502010045 54 0 0.0 0.0 0.00 0.00 0.00 83 1012.0
20260502005544 54 0 0.0 0.0 0.00 0.00 0.00 83 1012.1
20260502005044 54 0 0.0 0.0 0.00 0.00 0.00 83 1012.0
20260502004548 54 0 0.0 0.0 0.00 0.00 0.00 82 1012.2
20260502004043 54 0 0.0 0.0 0.00 0.00 0.00 82 1012.0
20260502003543 54 0 0.0 0.0 0.00 0.00 0.00 82 1011.8
20260502003047 54 0 0.0 0.0 0.00 0.00 0.00 82 1011.8
20260502002543 54 0 0.0 0.0 0.00 0.00 0.00 81 1011.8
20260502002043 54 0 0.0 0.0 0.00 0.00 0.00 80 1011.8
20260502001546 54 0 0.0 0.0 0.00 0.00 0.00 80 1011.7
20260502001044 54 0 0.0 0.0 0.00 0.00 0.00 80 1011.7
20260502000543 54 0 0.0 0.0 0.00 0.00 0.00 79 1011.8
20260502000050 54 0 0.0 0.0 0.00 0.00 0.00 79 1011.7
20260501235542 54 0 0.0 0.0 0.00 0.00 0.00 79 1011.8
20260501235044 54 0 0.0 0.0 0.00 0.00 0.00 79 1011.9
20260501234549 54 0 0.0 0.0 0.00 0.00 0.00 78 1011.8
20260501234043 54 0 0.0 0.0 0.00 0.00 0.00 78 1011.8